Regional Weather Roundup
Issued by NWS Wakefield, VA

Home | Current Version | Previous Version | Graphics & Text | Print | Product List | Glossary On
Versions: 1 2 3 4 5 6 7 8 9 10 11 12 13 14 15 16 17 18 19 20 21 22 23 24 25 26 27 28 29 30 31 32 33 34 35 36 37 38 39 40 41 42 43 44 45 46 47 48 49 50
000
ASUS41 KAKQ 270610
RWRAKQ

REGIONAL WEATHER ROUNDUP
NATIONAL WEATHER SERVICE WAKEFIELD VA
100 AM EST TUE JAN 27 2015

Note: "fair" indicates few or no clouds below 12,000 feet with no
significant weather and/or obstructions to visibility. * = Denotes
station may not report precipitation (e.g., rain,snow,etc.),
thunder or fog.

VAZ042-051-052>054-056-270700-
NORTHERN VIRGINIA

CITY           SKY/WX    TMP DP  RH WIND       PRES   REMARKS
WASH NATIONAL  LGT SNOW  30  23  74 N16G24    29.76S WCI  19
DULLES         LGT SNOW  26  23  88 N12       29.76S FOG     WCI  16
FORT BELVOIR   LGT SNOW  28  24  85 N7        29.76S FOG
QUANTICO       LGT RAIN  29  25  85 N8        29.76S
FREDERICKSBRG* CLOUDY    31  29  96 N9        29.74S
STAFFORD*      CLOUDY    28  28 100 CALM      29.78S
WARRENTON      CLOUDY    29  28  96 N8        29.74F
CULPEPER*      CLOUDY    28  25  86 N9        29.75S
MANASSAS*      CLOUDY    28  27  93 N12       29.76F WCI  18
LEESBURG*      CLOUDY    28  28 100 N9        29.77S
WINCHESTER     CLOUDY    28  23  80 N3        29.77S
FRONT ROYAL*   CLOUDY    27  23  86 CALM      29.76F
LURAY*         FLURRIES  28  28 100 N3        29.75F
$$

VAZ048-049-060>072-079>083-270700-
CENTRAL AND SOUTH CENTRAL VIRGINIA

CITY           SKY/WX    TMP DP  RH WIND       PRES   REMARKS
RICHMOND       LGT SNOW  30  28  93 N14       29.70F FOG     WCI  20
CHESTERFIELD*  CLOUDY    32  18  55 N10       29.71S WCI  24
PETERSBURG*    CLOUDY    34  30  86 N7        29.71S
HANOVER        LGT SNOW  30  27  88 VRB5      29.73S FOG
TAPPAHANNOCK*  LGT SNOW  30  25  83 NW9G17    29.71S
QUINTON*       CLOUDY    29  27  91 NW9G16    29.70F
CHARLOTTSVILLE CLOUDY    30  28  92 NE3       29.71S
GORDONSVILLE*  CLOUDY    29  24  83 CALM      29.72S
ORANGE*        CLOUDY    30  27  86 N8        29.74S
LOUISA*        CLOUDY    30  27  86 N6        29.70S
BUMPASS*       CLOUDY    30  25  83 N8G17     29.72S
FARMVILLE*     CLOUDY    33  33 100 N5        29.71S
CREWE*         CLOUDY    32  29  88 N3        29.71R
FORT PICKETT*  CLOUDY    31  29  92 N8        29.70R
CHASE CITY*    CLOUDY    36  36 100 NW7       29.70S
CLARKSVILLE*   CLOUDY    36  34  93 N8        29.70R
SOUTH HILL*    CLOUDY    33  31  92 N12       29.75R WCI  25
LAWRENCEVILLE* CLOUDY    33  31  93 NW8       29.69R
EMPORIA*       CLOUDY    34  32  93 W10       29.71R
$$

VAZ088>098-270700-
SOUTHEAST VIRGINIA

CITY           SKY/WX    TMP DP  RH WIND       PRES   REMARKS
NORFOLK        FLURRIES  34  30  85 N17G25    29.63F WCI  23
VIRGINIA BEACH LGT SNOW  35  32  88 N17       29.61F FOG     WCI  25
NORFOLK NAVAL  LGT SNOW  36  31  82 N15       29.65F
WEST POINT*    CLOUDY    32  28  85 NW9G17    29.71R
SALUDA*        CLOUDY    31  29  92 NW13G21   29.67R WCI  21
NEWPORT NEWS   LGT SNOW  35  30  82 N13G21    29.66S
LANGLEY AFB    LGT RAIN  33  30  91 N13       29.65S WCI  23
FORT EUSTIS    FLURRIES  33  33  99 N10G17    29.65R WCI  25
WILLIAMSBURG*    N/A     36  30  80 N9G21     29.68S
HR EXEC AP*    CLOUDY    34  28  80 N7        29.67S
FRANKLIN*      LGT SNOW  33  31  94 NW9       29.67S
WAKEFIELD      CLOUDY    33  28  81 N8G21     29.68S
$$

VAZ020-022-025-037-045-270700-
WEST CENTRAL AND SOUTHWEST VIRGINIA

CITY           SKY/WX    TMP DP  RH WIND       PRES   REMARKS
STAUNTON*      CLOUDY    29  27  90 CALM      29.73F FOG
WAYNESBORO*    CLOUDY    28  27  94 N3        29.71S
HOT SPRINGS VA FOG       19  19 100 W14       29.58F VSB 1/4 WCI   6
LYNCHBURG      CLOUDY    33  24  69 NW6       29.71F
DANVILLE       CLOUDY    36  27  69 N6        29.72F
SOUTH BOSTON*  CLOUDY    34  31  88 NW5       29.71F
MARTINSVILLE   PTCLDY    32  23  69 N8        29.75F
ROANOKE        CLOUDY    31  21  66 NW10      29.76F WCI  22
BLACKSBURG     CLOUDY    24  17  72 W7        29.75F
DUBLIN*        CLOUDY    27  20  75 NW14      29.76F WCI  15
MARION*        CLOUDY    25  18  76 W20G26    29.76F WCI  11
HILLSVILLE*    PTCLDY    24  18  78 NW16G26   29.69F WCI  10
RICHLANDS*     CLOUDY    22  17  79 NW7       29.78F
WISE*          CLOUDY    25  23  93 W7        29.81F
ABINGDON*      CLOUDY    28  22  76 NW7       29.82F
$$

MDZ021>025-VAZ099-100-270700-
SOUTHERN MARYLAND AND THE DELMARVA PENINSULA

CITY           SKY/WX    TMP DP  RH WIND       PRES   REMARKS
PATUXENT RIVER LGT SNOW  30  26  85 NW16      29.69S FOG     WCI  19
BAY BRIDGE APT   N/A     30  27  86 NW14G21   29.72S WCI  20
LEONARDTOWN    CLOUDY    28  25  86 NW6       29.71S
DOVER          FLURRIES  28  28 100 N17       29.66F WCI  16
GEORGETOWN     CLOUDY    31  26  82 N13G18    29.63F WCI  21
EASTON         CLOUDY    31  28  88 N12       29.72S WCI  22
CAMBRIDGE      CLOUDY    32  28  86 CALM      29.67S
SALISBURY      CLOUDY    33  28  81 N14       29.63F WCI  23
OCEAN CITY     CLOUDY    32  28  85 N14G26    29.60S WCI  22
WALLOPS ISLAND CLOUDY    32  30  92 N10       29.61F WCI  24
ACCOMACK*      CLOUDY    32  30  93 N12G23    29.62S WCI  23
$$

NCZ012>017-030>032-270700-
NORTH CENTRAL AND EASTERN NORTH CAROLINA

CITY           SKY/WX    TMP DP  RH WIND       PRES   REMARKS
ROANOKE RAPIDS CLOUDY    36  32  87 N12       29.68R
RALEIGH        LGT RAIN  39  29  67 VRB6      29.70S
ELIZABETH CITY CLOUDY    37  34  87 NW16      29.62R
AHOSKIE*       CLOUDY    35  32  88 N8        29.67S
EDENTON*       CLOUDY    37  34  87 N12G18    29.64R
CURRITUCK*     RAIN      36  34  91 NW12G18   29.61S
KILL DEVIL HLS CLOUDY    38  37  96 NW14G21   29.57S
MANTEO         CLOUDY    37  36  93 NW15G26   29.59R
CAPE HATTERAS  CLOUDY    42  38  85 NW12G24   29.58S
TARBORO*       CLOUDY    40  36  85 NW7       29.68S
GOLDSBORO      CLOUDY    43  43 100 NW12      29.65S
WASHINGTON     CLOUDY    40  36  86 NW9       29.65R
GREENVILLE     CLOUDY    41  37  87 N10G18    29.69S
NEW BERN       CLOUDY    46  38  73 N17       29.64R
WILMINGTON     CLOUDY    46  43  89 NW12      29.66S
$$

VAZ048-270700-
ELSEWHERE

CITY           SKY/WX    TMP DP  RH WIND       PRES   REMARKS
HARRISBURG PA  CLOUDY    25  21  85 NW13      29.76S WCI  14
BALTIMORE      LGT SNOW  27  21  80 NW8       29.73F FOG
ANNAPOLIS      CLOUDY    28  24  85 NW14      29.72S FOG     WCI  17
ANDREWS AFB    NOT AVBL
PHILADELPHIA   CLOUDY    28  20  71 N18G25    29.69F WCI  15
HENDERSON NC   CLOUDY    36  34  92 NW7       29.69S
GREENSBORO     PTCLDY    35  23  61 N6        29.71S
ROCKY MOUNT    CLOUDY    41  34  76 NW15G29   29.68R
$$

VAZ100-270700-
MARINE

STATION/POSITION TIME  TEMP    WIND        PRES    WAVE   SWELL
                       AIR SEA DIR/SP/G            HT/PER HT/PER
                 (UTC) (F)     (DEG/KT/KT) (MB)    (FT/S) (FT/S)
BRANDYWINE LGT   0600   30 37   20/ 23/ 30 1003.3S
CAPE MAY NJ      0600   30 39   10/  6/ 12 1002.6S
LEWES DE         0600   31 38   10/ 22/ 25 1003.3S
15NM E FENWICK I 0600   34 41              1000.1R  14/11
OCEAN-CITY-INLET 0600   33 40  360/ 18/ 25 1001.9R
WACHAPREAGUE VA  0600   32 42  330/  5/ 13 1002.6S
THOMAS POINT MD  0600   28 37  340/ 15/ 16 1007.1S
GOOSES REEF MD   0600   30 37  VRB 17/ 21  1004.7F   3/ 3
COVE POINT MD    0600   28     350/ 23/ 25 1005.2S
SOLOMONS ISLAND  0600      39                N/A
BISHOPS HEAD MD  0600   30 37  340/ 11/ 17 1004.0S
PINEY POINT MD   0600          350/ 18/ 20   N/A
POTOMAC MD       0600   30 38  350/ 14/ 19 1004.1S   1/ 3
CAMBRIDGE MD     0600   30 37  330/ 13/ 17 1004.9F
LEWISETTA VA     0600   31 39  340/ 14/ 21 1005.1R
RAPPAHANNOCK LGT 0600          340/ 29/ 32 1003.6S
STINGRAY PT      0600   32 40  340/ 17/ 21 1004.8R   3/ 3
YORK RVR RNG VA  0600   34     350/ 21/ 25 1003.1S
YORKTOWN VA      0600   33 41  330/ 17/ 23 1004.0S
JAMESTOWN VA     0600   32 41  350/ 16/ 19   N/A     0
DOMINION TERM VA 0600   34     360/  3/ 10 1003.8F
KIPTOPEKE VA     0600      46  350/ 22/ 30   N/A
CHES BAY BRIDGE  0600   34 41  330/ 24/ 27 1002.9F
CAPE HENRY VA    0600   34     340/ 27/ 32 1001.7F
CHESAPEAKE LGHT  0500   36     340/ 32/ 35 1001.9R
WILLOUBY STN VA  0600   34     340/ 15/ 18 1004.0F
S CRANEY ISL VA  0600          340/ 11/ 15 1003.7F
CAPE HENRY BUOY  0500      45                N/A     9/ 8   2/11
1ST LANDING BUOY 0600   35 42  340/ 23/ 31 1002.9S   5/ 5
CAPE CHARLES BUO 0600      43                N/A     8/10   7/10
OFFSHORE WE BUOY 0600      47                N/A    10/11   7/11
64NM E OF VA BCH 0600   46 52  350/ 29/ 35  997.5R  12/10   7/10
DUCK PIER NC     0600   38 44  340/ 26/ 32 1000.1F
44100 DUCK FRF   0500      45                N/A     8/ 7   2/11
44056 DUCK FRF   0600      44                N/A     7/ 8   2/11
OREGON INLET NC  0600   39 47  320/ 19/ 24 1001.2R


USA.gov is the U.S. government's official web portal to all federal, state and local government web resources and services.